EW7210 Weather Reports


time (UTC)temp
C
wind
direction
speed
KPH
gust
KPH
rain 1hr
cm
rain 24hr
cm
rain mn
cm
humidity
%
barometer
mb
20190419103010 14 58 0.0 4.8 0.00 0.00 0.00 93 1017.6
20190419101504 13 87 0.0 6.4 0.00 0.00 0.00 94 1017.5
20190419100220 13 30 0.0 4.8 0.00 0.00 0.00 95 1017.4
20190419094830 13 61 0.0 0.0 0.00 0.00 0.00 95 1017.3
20190419093253 13 57 0.0 1.6 0.00 0.00 0.00 96 1017.5
20190419091616 13 46 0.0 3.2 0.00 0.00 0.00 96 1017.4
20190419090146 13 67 0.0 0.0 0.00 0.00 0.00 96 1017.1
20190419084735 12 63 0.0 0.0 0.00 0.00 0.00 96 1017.1
20190419083132 12 35 0.0 0.0 0.00 0.00 0.00 96 1017.2
20190419081649 12 76 0.0 0.0 0.00 0.00 0.00 96 1016.8
20190419080108 12 61 0.0 0.0 0.00 0.00 0.00 96 1016.7
20190419074602 12 70 0.0 0.0 0.00 0.00 0.00 96 1016.5
20190419073117 12 70 0.0 0.0 0.00 0.00 0.00 96 1016.2
20190419071546 12 62 0.0 0.0 0.00 0.00 0.00 96 1016.3
20190419070113 12 71 0.0 0.0 0.00 0.00 0.00 96 1016.1
20190419064548 12 67 0.0 0.0 0.00 0.00 0.00 96 1016.1
20190419063105 12 103 0.0 3.2 0.00 0.00 0.00 96 1016.0
20190419061621 12 36 0.0 3.2 0.00 0.00 0.00 96 1015.9
20190419060051 12 117 0.0 0.0 0.00 0.00 0.00 95 1015.4
20190419054559 12 117 0.0 0.0 0.00 0.00 0.00 95 1015.1
20190419053106 11 117 0.0 0.0 0.00 0.00 0.00 95 1015.2
20190419051605 11 63 0.0 0.0 0.00 0.00 0.00 95 1015.3
20190419050038 11 61 0.0 0.0 0.00 0.00 0.00 95 1015.2
20190419044655 11 61 0.0 1.6 0.00 0.00 0.00 95 1014.9
20190419043030 11 61 0.0 0.0 0.00 0.00 0.00 95 1014.8
20190419041549 11 61 0.0 0.0 0.00 0.00 0.00 95 1014.7
20190419040032 11 87 0.0 1.6 0.00 0.00 0.00 95 1014.7
20190419034602 12 50 0.0 0.0 0.00 0.00 0.00 95 1014.7
20190419033057 12 50 0.0 0.0 0.00 0.00 0.00 95 1014.5
20190419031537 12 50 0.0 3.2 0.00 0.00 0.00 95 1014.7
20190419030029 12 81 0.0 4.8 0.00 0.00 0.00 95 1014.9
20190419024527 11 64 0.0 4.8 0.00 0.00 0.00 95 1015.2
20190419023022 11 26 0.0 4.8 0.00 0.00 0.00 95 1015.2
20190419021522 11 62 0.0 0.0 0.00 0.00 0.00 95 1015.2
20190419020046 11 62 0.0 0.0 0.00 0.00 0.00 95 1015.4
20190419014517 11 49 0.0 0.0 0.00 0.00 0.00 95 1015.2
20190419013021 11 59 0.0 0.0 0.00 0.00 0.00 95 1015.1
20190419011516 11 59 0.0 1.6 0.00 0.00 0.00 95 1015.3
20190419010034 11 73 0.0 1.6 0.00 0.00 0.00 95 1015.1
20190419004520 11 95 0.0 1.6 0.00 0.00 0.00 95 1015.3
20190419003013 11 44 0.0 1.6 0.00 0.00 0.00 95 1015.2
20190419001512 11 69 0.0 1.6 0.00 0.00 0.00 95 1015.4
20190419000008 11 43 0.0 3.2 0.00 0.00 0.00 95 1015.3
20190418234515 11 22 0.0 3.2 0.00 0.00 0.00 95 1015.3
20190418233054 12 29 0.0 3.2 0.00 0.00 0.00 95 1015.4
20190418231500 12 28 0.0 1.6 0.00 0.00 0.00 95 1015.5
20190418230204 12 27 0.0 1.6 0.00 0.00 0.00 95 1015.7
20190418224626 12 27 0.0 0.0 0.00 0.00 0.00 95 1015.8
20190418223203 12 27 0.0 0.0 0.00 0.00 0.00 95 1015.7
20190418221649 12 27 0.0 1.6 0.00 0.00 0.00 95 1015.8
20190418220145 12 27 0.0 0.0 0.00 0.00 0.00 94 1015.7
20190418214757 12 27 0.0 0.0 0.00 0.00 0.00 94 1015.7
20190418213200 12 27 0.0 0.0 0.00 0.00 0.00 94 1015.6
20190418211611 12 22 0.0 6.4 0.00 0.00 0.00 94 1015.5
20190418210135 12 44 0.0 4.8 0.00 0.00 0.00 94 1015.5
20190418204659 12 59 0.0 3.2 0.00 0.00 0.00 94 1015.5
20190418203228 12 46 0.0 6.4 0.00 0.00 0.00 94 1015.5
20190418201726 12 56 0.0 3.2 0.00 0.00 0.00 94 1015.4
20190418200128 12 61 0.0 3.2 0.00 0.00 0.00 94 1015.2
20190418194643 12 60 1.6 6.4 0.00 0.00 0.00 94 1015.1
20190418193151 12 50 0.0 4.8 0.00 0.00 0.00 94 1014.9
20190418191653 12 38 1.6 6.4 0.00 0.00 0.00 94 1014.7
20190418190141 12 46 0.0 3.2 0.00 0.00 0.00 94 1014.6
20190418184554 12 46 0.0 4.8 0.00 0.00 0.00 93 1014.5
20190418183058 12 59 0.0 3.2 0.00 0.00 0.00 93 1014.3
20190418181558 12 59 0.0 0.0 0.00 0.00 0.00 93 1014.2
20190418180112 12 59 0.0 4.8 0.00 0.00 0.00 93 1014.1
20190418174604 12 315 0.0 1.6 0.00 0.00 0.00 93 1013.9
20190418173043 12 315 0.0 1.6 0.00 0.00 0.00 93 1013.8
20190418170032 13 57 1.6 4.8 0.00 0.00 0.00 92 1013.4
20190418164532 13 39 1.6 8.0 0.00 0.00 0.00 91 1013.3
20190418163054 13 94 0.0 9.7 0.00 0.00 0.00 91 1013.2
20190418161542 13 59 1.6 8.0 0.00 0.00 0.00 90 1013.1
20190418160034 13 24 3.2 9.7 0.00 0.00 0.00 89 1012.9
20190418154637 13 63 1.6 8.0 0.00 0.00 0.00 88 1012.8
20190418153023 13 44 1.6 9.7 0.00 0.00 0.00 86 1012.8
20190418151521 13 77 1.6 14.5 0.00 0.00 0.00 84 1012.6
20190418150028 13 55 1.6 12.9 0.00 0.00 0.00 82 1012.6
20190418144535 14 108 6.4 17.7 0.00 0.00 0.00 79 1012.6
20190418143020 15 355 6.4 19.3 0.00 0.00 0.00 79 1012.5
20190418141515 15 123 4.8 14.5 0.00 0.00 0.00 78 1012.7
20190418140014 15 87 4.8 11.3 0.00 0.00 0.00 77 1012.6
20190418134523 15 105 4.8 20.9 0.00 0.00 0.00 81 1012.6
20190418133010 15 45 4.8 9.7 0.00 0.00 0.00 83 1012.6
20190418131505 15 42 1.6 8.0 0.00 0.00 0.00 85 1012.5
20190418130004 15 22 1.6 6.4 0.00 0.00 0.00 86 1012.5
20190418124505 14 22 1.6 4.8 0.00 0.00 0.00 86 1012.5
20190418123003 15 298 0.0 4.8 0.00 0.00 0.00 87 1012.5
20190418121501 15 295 0.0 3.2 0.00 0.00 0.00 86 1012.4
20190418114656 15 301 1.6 4.8 0.00 0.00 0.00 86 1012.5
20190418113126 15 32 0.0 3.2 0.00 0.00 0.00 85 1012.6
20190418111644 15 32 0.0 1.6 0.00 0.00 0.00 83 1012.6
20190418110148 15 32 0.0 6.4 0.00 0.00 0.00 80 1012.3
20190418104650 15 103 0.0 3.2 0.00 0.00 0.00 85 1012.5
20190418103131 14 311 0.0 4.8 0.00 0.00 0.00 84 1012.5